TimeAKST,TemperatureF,Dew PointF,Humidity,Sea Level PressureIn,VisibilityMPH,Wind Direction,Wind SpeedMPH,Gust SpeedMPH,PrecipitationIn,Events,Conditions,WindDirDegrees,DateUTC
12:53 AM,1.9,-0.9,88,30.32,7.0,SSW,6.9,-,0.00,,Overcast,210,2012-12-03 09:53:00
1:51 AM,1.4,-2.2,85,30.32,7.0,SSW,6.9,-,0.00,,Overcast,210,2012-12-03 10:51:00
1:53 AM,1.0,-2.0,87,30.32,7.0,SW,6.9,-,0.00,,Overcast,220,2012-12-03 10:53:00
3:53 AM,-0.0,-2.9,88,30.35,7.0,SSW,3.5,-,0.00,,Overcast,200,2012-12-03 12:53:00
4:53 AM,-0.0,-4.0,83,30.35,7.0,South,5.8,-,0.00,,Overcast,190,2012-12-03 13:53:00
5:53 AM,-0.0,-2.9,88,30.35,7.0,South,4.6,-,0.00,,Overcast,190,2012-12-03 14:53:00
6:53 AM,-0.0,-2.9,88,30.34,7.0,South,4.6,-,0.00,,Overcast,180,2012-12-03 15:53:00
7:53 AM,-0.0,-2.9,88,30.35,7.0,South,4.6,-,0.00,,Overcast,180,2012-12-03 16:53:00
8:53 AM,-0.0,-2.9,88,30.35,7.0,SSW,5.8,-,0.00,,Overcast,210,2012-12-03 17:53:00
9:53 AM,-0.0,-2.9,88,30.36,7.0,SSE,3.5,-,0.00,,Overcast,150,2012-12-03 18:53:00
10:53 AM,1.0,-2.9,83,30.36,6.0,South,8.1,-,0.00,,Overcast,180,2012-12-03 19:53:00
12:53 PM,-0.0,-2.9,88,30.38,7.0,SSW,6.9,-,0.00,,Overcast,200,2012-12-03 21:53:00
1:53 PM,-0.0,-2.9,88,30.38,7.0,South,5.8,-,0.00,,Overcast,180,2012-12-03 22:53:00
2:53 PM,-0.0,-4.0,83,30.38,7.0,South,6.9,-,0.00,,Overcast,170,2012-12-03 23:53:00
3:53 PM,-0.9,-4.0,87,30.38,6.0,South,6.9,-,0.00,,Overcast,170,2012-12-04 00:53:00
4:19 PM,-0.4,-4.0,85,30.38,7.0,South,4.6,-,N/A,,Overcast,170,2012-12-04 01:19:00
4:53 PM,-0.9,-5.1,83,30.38,6.0,South,3.5,-,N/A,,Overcast,180,2012-12-04 01:53:00
5:53 PM,-0.9,-4.0,87,30.39,7.0,South,3.5,-,0.00,,Overcast,180,2012-12-04 02:53:00
6:53 PM,-0.0,-4.0,83,30.39,7.0,SW,4.6,-,0.00,,Overcast,220,2012-12-04 03:53:00
7:53 PM,-0.9,-2.9,91,30.39,7.0,SSW,3.5,-,0.00,,Overcast,210,2012-12-04 04:53:00
8:53 PM,-0.0,-2.9,88,30.39,7.0,South,3.5,-,0.00,,Overcast,190,2012-12-04 05:53:00
9:53 PM,-0.0,-2.9,88,30.40,7.0,South,3.5,-,0.00,,Overcast,170,2012-12-04 06:53:00
10:53 PM,-0.0,-2.9,88,30.40,7.0,Calm,Calm,-,0.00,,Overcast,0,2012-12-04 07:53:00
11:53 PM,-0.0,-2.9,88,30.40,8.0,Calm,Calm,-,0.00,,Overcast,0,2012-12-04 08:53:00